Hourly Data Report for October 20, 2020

MUSKOKA
ONTARIO
Current Station Operator: NAVCAN

44°58'29.000" N
79°18'12.000" W
281.90 m
6115529
71532
YQA

Download Data

Hourly Data (October 2020)
Hourly Data Report for October 20, 2020
TIME Temp Definition
°C
Dew Point Definition
°C
Rel Hum Definition
%
Wind Dir Definition
10's deg

Wind Spd Definition
km/h
Visibility Definition
km
Stn Press Definition
kPa
Hmdx Definition


Wind Chill Definition


Weather Definition


00:00 2.6 2.0 96 LegendMM 4 16.1 98.75     Rain
01:00 2.6 2.2 97   0 16.1 98.77     Rain
02:00 2.5 2.1 97   0 16.1 98.74     Rain
03:00 2.5 2.1 97   0 14.5 98.76     Rain
04:00 2.6 2.2 97   0 9.7 98.78     Rain,Fog
05:00 2.6 2.3 98   0 16.1 98.85     Rain
06:00 2.8 2.4 97 33 9 16.1 98.93     Rain
07:00 2.7 2.4 98   0 16.1 98.97     LegendNANA
08:00 3.8 3.1 95 LegendMM 4 16.1 99.07     LegendNANA
09:00 4.4 2.3 86 34 5 16.1 99.11     LegendNANA
10:00 5.2 2.7 84 33 9 16.1 99.16     LegendNANA
11:00 5.9 3.0 81 33 13 16.1 99.17     LegendNANA
12:00 6.7 2.1 73 36 9 16.1 99.24     LegendNANA
13:00 7.4 1.9 68 32 9 16.1 99.26     LegendNANA
14:00 8.4 2.5 67 LegendMM 5 16.1 99.20     LegendNANA
15:00 8.8 1.2 59 33 11 16.1 99.20     LegendNANA
16:00 7.9 0.9 61   0 16.1 99.19     LegendNANA
17:00 7.2 2.7 73   0 16.1 99.22     LegendNANA
18:00 3.9 2.9 93   0 16.1 99.23     LegendNANA
19:00 2.7 2.3 97   0 16.1 99.20     LegendNANA
20:00 1.0 0.7 98   0 16.1 99.18     LegendNANA
21:00 1.7 1.1 96 10 8 16.1 99.13     LegendNANA
22:00 3.3 1.8 90 11 8 16.1 99.09     LegendNANA
23:00 3.0 1.7 91 10 8 16.1 99.03     LegendNANA

Notes on Data Quality.

Legend

  • E = Estimated
  • M = Missing
  • NA = Not Available*
  • [empty] = Indicates an unobserved value
Date modified: